SL-4 R/B (43212 NORAD) Tracking and Keplerian Element Data

This shows tracking and keplerian element data for the satellite.

Feedback or suggestion? Click here.




ElementValue
Catalog43212
NameSL-4 R/B
Epoch Orbit56
Epoch Day47.76426502
Epoch Year2018
RAAN257.5677
Inclination51.6542
Eccentricity0.0007705
Argument of Perigee118.5481
Mean Anonmoly242.5554
Mean Motion16.47698182
Decay Rate0.10872814
L11 43212U 18019B 18047.76426502 .10872814 12553-4 17615-3 0 9997
L22 43212 51.6542 257.5677 0007705 118.5481 242.5554 16.47698182 563

Live tracking and technical data element details for SL-4 R/B (NORAD 43212). SL-4 R/B can be tracked NOW for your location showing map with azimuth and elevation plus other details from your city location.

Track the satellite on the map from your city or location and see movement details for azimuth, elevation, latitude, longitude, range, height, and movement on the map or in text.







IsCatalogInMostPopularTable: catalog: 43212, numindb: 99
Update: records affected: 1



GetName: 43212 SL-4 R/B

Hit Count: updated at: Wed, 15 Aug 2018 18:57:49 GMT